VIEQUES PR US current weather conditions

sailwx.info

Wind from 090 at 7 knots gusting 14

Air temperature 29.4° C
Dewpoint 22.4° C

Last reported at 2020-Jul-09 22:11 UTC.
Time now 2020-Jul-09 23:39 UTC

Location: N 18°07' W 065°25'.
View on Google Maps.

See reports from other nearby stations

  
Tides and Currents Weather Stations Pressure Air Temp Water Temp Dewpoint Dewpoint Depression Visibility Wind Speed Wind Dir Waves Ship Positions
date/time (UTC)wind fromknots sea level pressurealtimeterstation pressurevisibilityair tempwater tempwave heightnotes
2020-Jul-09 22:11 090 7 gusting 14 29.4
2020-Jul-09 21:11 100 7 gusting 15 31.1
2020-Jul-09 20:11 093 8 gusting 17 31.7
2020-Jul-09 19:11 090 9 gusting 16 32.2
2020-Jul-09 18:11 087 8 gusting 19 32.2
2020-Jul-09 17:11 101 9 gusting 16 32.2
2020-Jul-09 16:11 096 9 gusting 16 32.2
2020-Jul-09 15:11 103 10 gusting 18 31.7
2020-Jul-09 14:11 114 9 gusting 16 31.7
2020-Jul-09 13:11 080 10 gusting 17 30.6
2020-Jul-09 12:11 084 10 gusting 14 29.4
2020-Jul-09 11:11 072 5 gusting 10 28.3
2020-Jul-09 10:11 064 3 gusting 7 26.7
2020-Jul-09 09:11 069 4 gusting 13 27.2
2020-Jul-09 08:11 074 6 gusting 10 27.2
2020-Jul-09 07:11 070 4 gusting 9 27.2
2020-Jul-09 06:11 067 5 gusting 12 27.2
2020-Jul-09 05:11 072 5 gusting 12 27.8
2020-Jul-09 04:11 075 5 gusting 13 27.8
2020-Jul-09 03:11 079 6 gusting 12 27.8
2020-Jul-09 02:11 077 5 gusting 13 27.8
2020-Jul-09 01:11 097 6 gusting 10 28.3
2020-Jul-09 00:11 095 6 gusting 12 28.3
2020-Jul-08 23:11 095 6 gusting 12 28.3
2020-Jul-08 22:11 102 8 gusting 14 28.9
2020-Jul-08 21:11 094 9 gusting 16 30.0
2020-Jul-08 20:11 103 9 gusting 17 31.1
2020-Jul-08 19:11 099 11 gusting 18 30.0
2020-Jul-08 18:11 097 12 gusting 19 31.7
2020-Jul-08 17:11 098 13 gusting 21 31.7
2020-Jul-08 16:11 103 11 gusting 18 31.7
2020-Jul-08 15:11 116 10 gusting 16 31.7
2020-Jul-08 14:11 102 9 gusting 15 30.6
2020-Jul-08 13:11 117 7 gusting 16 29.4
2020-Jul-08 12:11 109 9 gusting 17 30.0
2020-Jul-08 11:11 104 8 gusting 15 28.9
2020-Jul-08 10:11 096 8 gusting 15 27.8
2020-Jul-08 09:11 090 6 gusting 15 27.2
2020-Jul-08 08:11 095 7 gusting 18 28.3
2020-Jul-08 07:11 088 8 gusting 15 28.3
2020-Jul-08 06:11 094 7 gusting 15 27.8
2020-Jul-08 05:11 106 8 gusting 16 27.8
2020-Jul-08 04:11 097 7 gusting 15 27.8
2020-Jul-08 03:11 094 6 gusting 14 27.8
2020-Jul-08 02:11 094 6 gusting 11 26.7
2020-Jul-08 01:11 084 5 gusting 11 26.7
2020-Jul-08 00:11 112 6 gusting 16 26.1
2020-Jul-07 23:11 100 7 gusting 26 25.0